Cloud_Cover
100 100 2 5 99 99 40 5 5 63 36 69 89 74 2 2 4 0 0 1 3 0 65 45 12 41 56 47 47 55 84 64 88 100 100 100 100 100 100 100 100 100 100 100
88 7 13 66 12 5 5 5 17 7 6 14 59 3 0 0 4 29 5 8 5 5 9 5 31 99 97 96 73 74 98 99 100 100 100 100 97 98 100 100 100 100 100 100
100 5 8 6 98 94 54 28 15 21 5 12 4 4 0 2 5 19 100 100 39 5 4 13 94 37 95 100 100 100 89 99 100 77 100 98 91 100 100 100 100 100 100 100
86 58 12 100 46 99 100 100 100 100 6 5 3 1 0 4 48 58 100 100 3 0 3 8 99 30 73 100 99 73 32 100 81 65 97 89 98 100 100 100 100 100 100 100
2 2 49 80 95 100 98 100 100 100 65 5 0 0 87 94 69 100 99 5 3 0 81 100 91 12 40 100 87 81 88 100 50 27 9 99 91 100 100 100 100 100 100 100
5 5 5 5 5 43 66 42 89 98 19 0 1 4 1 33 72 88 6 5 4 5 61 58 5 75 100 100 97 100 100 100 30 44 13 86 100 89 100 100 100 100 100 100
61 73 100 100 99 93 100 91 32 100 98 12 89 77 0 9 32 4 4 1 2 5 14 5 39 48 80 100 100 100 100 100 100 29 76 50 70 78 100 100 100 100 100 100
19 1 39 3 93 99 100 100 100 100 100 97 70 11 2 5 2 5 55 6 13 5 2 5 5 20 100 100 100 100 100 100 100 42 100 100 100 74 100 100 100 100 100 100
98 8 0 4 5 33 100 92 100 100 100 98 77 5 5 6 5 5 5 5 5 5 4 5 1 2 100 100 100 100 100 100 100 96 100 100 97 100 100 100 100 100 100 100
66 5 3 0 14 0 1 76 100 100 100 88 70 99 100 100 96 1 1 4 5 5 5 16 5 30 100 100 100 100 100 100 100 100 100 100 100 99 100 100 100 100 100 100
98 5 1 3 94 39 0 0 1 2 4 14 100 100 100 100 100 5 1 5 53 8 65 61 2 99 100 100 100 100 100 100 100 100 100 100 99 98 92 100 100 100 100 100
100 98 3 3 6 1 5 4 0 5 5 3 6 79 100 100 100 78 0 5 14 76 36 100 100 100 100 100 100 100 100 100 100 100 100 83 53 94 100 100 100 100 100 100
100 87 37 77 2 95 90 20 0 0 0 0 16 92 22 50 93 2 2 5 28 100 14 100 100 100 100 100 100 100 100 96 99 100 100 100 100 100 100 100 100 100 100 100
100 100 100 74 75 82 65 76 80 0 1 0 0 0 5 3 4 1 1 14 27 99 100 82 100 100 100 100 100 100 100 81 100 100 100 100 99 100 100 100 100 100 100 100
100 100 100 100 88 98 100 100 84 56 0 0 0 0 1 0 42 20 60 100 63 99 100 100 100 100 100 100 100 100 98 75 100 100 100 100 94 93 100 100 100 100 100 100
100 100 100 100 99 54 71 100 100 100 80 5 4 2 2 0 5 97 100 100 98 100 100 100 100 100 100 100 100 100 100 83 100 100 100 100 100 100 75 100 100 100 100 100
100 100 100 100 100 90 18 30 100 100 100 72 15 10 15 13 34 90 100 100 87 100 100 100 100 100 100 100 100 100 98 87 100 100 100 100 100 100 94 86 28 99 100 100
100 100 100 100 100 100 89 98 80 100 100 100 62 16 97 100 91 48 73 100 100 100 100 100 100 100 100 100 100 100 100 100 92 100 100 100 100 63 87 99 100 100 100 100
100 100 100 100 100 100 100 100 98 99 100 100 100 98 100 100 100 100 100 100 100 100 100 100 100 100 100 100 100 100 100 100 100 100 100 100 100 100 100 100 100 100 100 100
100 100 100 100 100 100 100 100 100 100 100 100 100 100 100 100 100 100 100 100 100 100 100 100 100 100 100 100 100 100 100 100 100 100 100 100 100 100 100 100 100 91 100 100
100 99 100 100 100 100 87 100 100 100 100 100 100 100 100 100 96 98 97 100 100 100 100 100 100 100 100 100 100 100 100 100 100 100 100 100 100 100 100 100 100 100 100 100
79 50 55 100 100 87 100 77 100 100 100 100 100 100 100 100 100 100 100 100 100 100 100 100 100 100 100 100 100 100 100 100 100 100 100 100 100 100 100 100 100 100 100 100
84 100 99 100 99 100 27 92 100 100 100 100 100 100 100 100 100 100 100 100 100 100 100 100 100 100 100 100 100 100 100 100 100 100 100 100 100 100 100 100 100 100 100 100
100 100 100 97 92 6 23 84 100 100 100 100 100 100 100 100 100 100 100 100 100 100 100 100 100 100 100 100 100 100 100 100 100 100 100 100 100 100 100 100 100 100 100 100
100 100 100 62 100 74 5 10 90 100 100 100 100 100 100 100 100 100 100 100 100 100 100 100 100 100 100 100 100 100 100 100 100 100 100 100 100 100 100 100 100 100 100 100
100 100 100 100 100 100 100 100 100 100 100 100 100 100 100 100 100 100 100 100 100 100 100 100 100 100 100 100 100 100 100 100 100 100 100 100 100 100 100 100 100 100 100 100